Terug naar catalogus

FENGYUN 1C DEB

ActiefPO
NORAD 35199·DEBRIS·🇨🇳 China

Gelanceerd May 10, 1999 vanaf Taiyuan Satellite Launch Center

Loading…

Volgende Passages (komende 24 uur)

TLE

VerouderdSource: Space-Track

Epoch: Sep 2, 2026, 14:32 UTC

1 35199U 99025DPF 26245.60586769  .00001380  00000-0  92867-3 0  9995
2 35199  98.4541  18.8838 0116002 190.5784 169.2939 13.98908271958739

Volg FENGYUN 1C DEB in realtime met AllMySat

Download on the App Store